Regional Weather Roundup
Issued by NWS Little Rock, AR

Home | Current Version | Previous Version | Text Only | Print | Product List | Glossary Off
Versions: 1 2 3 4 5 6 7 8 9 10 11 12 13 14 15 16 17 18 19 20 21 22 23 24 25 26 27 28 29 30 31 32 33 34 35 36 37 38 39 40 41 42 43 44 45 46 47 48 49 50

743
ASUS44 KLZK 200012
RWRLZK

WEATHER ROUNDUP FOR ARKANSAS
NATIONAL WEATHER SERVICE LITTLE ROCK AR
600 PM CST THU JAN 19 2017

NOTE: "FAIR" INDICATES FEW OR NO CLOUDS BELOW 12,000 FEET WITH NO
SIGNIFICANT WEATHER AND/OR OBSTRUCTIONS TO VISIBILITY.

ARZ001-003-010-029-200100-
NORTHWEST ARKANSAS

CITY           SKY/WX    TMP DP  RH WIND       PRES   REMARKS
FAYETTEVILLE   CLEAR     49  47  93 S6        29.64F
6HR MIN TEMP:  47; 6HR MAX TEMP:  57;

FORT SMITH     CLEAR     51  48  89 NE6       29.65S
6HR MIN TEMP:  50; 6HR MAX TEMP:  57;

HARRISON       PTCLDY    54  51  90 S5        29.65S
6HR MIN TEMP:  48; 6HR MAX TEMP:  56;

BENTONVILLE    CLEAR    N/A N/A N/A S6        29.64S
ROGERS         CLEAR     51  47  86 S9        29.64F
6HR MIN TEMP:  49; 6HR MAX TEMP:  60;

SILOAM SPGS    CLOUDY    50  45  81 SE7       29.63F
6HR MIN TEMP:  50; 6HR MAX TEMP:  55;

HIGHFILL       CLEAR     50  47  89 S9        29.63S
6HR MIN TEMP:  50; 6HR MAX TEMP:  57;

SPRINGDALE     CLEAR     52  48  87 SE6       29.66S
$$

ARZ004-005-016-200100-
NORTH CENTRAL ARKANSAS

CITY           SKY/WX    TMP DP  RH WIND       PRES   REMARKS
BATESVILLE     CLOUDY    48  46  93 S3        29.71R
6HR MIN TEMP:  46; 6HR MAX TEMP:  48; 6HR PCP:  0.19;

FLIPPIN        CLOUDY    50  45  81 E3        29.65S
6HR MIN TEMP:  46; 6HR MAX TEMP:  52;

MTN HOME       FOG       48  48 100 E3        29.66S VSB 1/2
6HR MIN TEMP:  47; 6HR MAX TEMP:  50;

$$

ARZ040-041-200100-
WEST CENTRAL ARKANSAS

CITY           SKY/WX    TMP DP  RH WIND       PRES   REMARKS
MENA           CLOUDY    55  54  94 CALM      29.69R
MOUNT IDA      CLOUDY    56  52  86 VRB5      29.66R
6HR MIN TEMP:  52; 6HR MAX TEMP:  56;

$$

ARZ009-017-025-026-028-200100-
NORTHEAST ARKANSAS

CITY           SKY/WX    TMP DP  RH WIND       PRES   REMARKS
CORNING        CLOUDY    50  50 100 S3        29.70S FOG
JONESBORO      CLOUDY    51  50  96 W6        29.69R FOG
6HR MIN TEMP:  50; 6HR MAX TEMP:  53; 6HR PCP:  0.02;

NEWPORT        CLOUDY    49  49 100 SE5         N/A
6HR MIN TEMP:  47; 6HR MAX TEMP:  49;

WALNUT RIDGE   CLOUDY    48  46  93 CALM      29.69F
6HR MIN TEMP:  46; 6HR MAX TEMP:  48; 6HR PCP:  0.04;

BLYTHEVILLE    LGT RAIN  57  57 100 SE8       29.70F
6HR MIN TEMP:  55; 6HR MAX TEMP:  60; 6HR PCP:  0.02;

$$

ARZ022-023-033-042-044-200100-
CENTRAL ARKANSAS

CITY           SKY/WX    TMP DP  RH WIND       PRES   REMARKS
LITTLE ROCK    DRZL/FOG  51  51 100 S5        29.71S VSB 1
6HR MIN TEMP:  51; 6HR MAX TEMP:  52; 6HR PCP:  0.25;

N LITTLE ROCK    N/A     51  51  97 CALM      29.73R
6HR MIN TEMP:  51; 6HR MAX TEMP:  52;

JACKSONVILLE   CLOUDY    52  52 100 CALM      29.70R FOG
6HR MIN TEMP:  50; 6HR MAX TEMP:  52; 6HR PCP:  0.20;

SEARCY         LGT RAIN  50  50 100 CALM      29.73R FOG
6HR MIN TEMP:  49; 6HR MAX TEMP:  51; 6HR PCP:  0.09;

HOT SPRINGS    CLOUDY    53  53 100 S3        29.70S
6HR MIN TEMP:  51; 6HR MAX TEMP:  54;

RUSSELLVILLE   CLOUDY    51  50  96 CALM      29.68F FOG
6HR MIN TEMP:  49; 6HR MAX TEMP:  51;

CLINTON        CLOUDY    52  52 100 CALM      29.69S FOG
$$

ARZ036-200100-
EAST ARKANSAS

CITY           SKY/WX    TMP DP  RH WIND       PRES   REMARKS
WEST MEMPHIS   LGT RAIN  60  60 100 S14       29.69S
6HR MIN TEMP:  57; 6HR MAX TEMP:  62; 6HR PCP:  0.12;

$$

ARZ050-053-066-070-073-200100-
SOUTHWEST ARKANSAS

CITY           SKY/WX    TMP DP  RH WIND       PRES   REMARKS
ARKADELPHIA    LGT RAIN  54  54 100 S5        29.73R FOG
CAMDEN         CLOUDY    55  54  94 CALM      29.73R FOG
TEXARKANA      CLOUDY    56  56 100 S5        29.71S
6HR MIN TEMP:  51; 6HR MAX TEMP:  56;

EL DORADO      CLOUDY    58  56  93 S5        29.73S
6HR MIN TEMP:  53; 6HR MAX TEMP:  60; 6HR PCP:  0.02;

DE QUEEN       CLOUDY    54  54 100 CALM      29.68S
6HR MIN TEMP:  51; 6HR MAX TEMP:  54;

$$

ARZ056-057-069-200100-
SOUTHEAST ARKANSAS

CITY           SKY/WX    TMP DP  RH WIND       PRES   REMARKS
PINE BLUFF     CLOUDY    55  54  96 SW7       29.72R
6HR MIN TEMP:  51; 6HR MAX TEMP:  55; 6HR PCP:  0.01;

STUTTGART      CLOUDY    52  46  82 W6        29.72R
6HR MIN TEMP:  52; 6HR MAX TEMP:  54; 6HR PCP:  0.01;

MONTICELLO     PTCLDY    56  55  97 SW3       29.73R
6HR MIN TEMP:  54; 6HR MAX TEMP:  58; 6HR PCP:  0.13;


$$






USA.gov is the U.S. government's official web portal to all federal, state and local government web resources and services.